Regional Weather Roundup
Issued by NWS

Home | Current Version | Previous Version | Text Only | Print | Product List | Glossary Off
Versions: 1 2 3 4 5 6 7 8 9 10 11 12 13 14 15 16 17 18 19 20 21 22 23 24 25 26 27 28 29 30 31 32 33 34 35 36 37 38 39 40 41 42 43 44 45 46 47 48 49 50

967
ASUS43 KOAX 120110
RWRNE

WEATHER ROUNDUP FOR NEBRASKA
NATIONAL WEATHER SERVICE OMAHA NE
700 PM CST THU FEB 11 2016

NOTES: SATELLITE DATA IS BEING USED TO AUGMENT CLOUD COVER ABOVE
       12000 FEET.
       "FAIR" INDICATES FEW OR NO CLOUDS BELOW 12,000 FEET WITH NO
       SIGNIFICANT WEATHER AND/OR OBSTRUCTIONS TO VISIBILITY.

  * THESE STATIONS DO NOT REPORT WEATHER SUCH AS RAIN...SNOW OR FOG.

NEZ001>004-019>022-054>056-120200-
NEBRASKA PANHANDLE

CITY           SKY/WX    TMP DP  RH WIND       PRES   REMARKS
SCOTTSBLUFF    CLEAR     42  27  55 N5        30.18R
ALLIANCE       CLOUDY    42  28  57 NW12      30.15R
CHADRON        CLEAR     43  26  51 NW8       30.15R
KIMBALL        CLOUDY    37  28  68 NW12      30.21R WCI  30
SIDNEY         CLOUDY    41  29  62 NW10      30.19R
$$

NEZ057>060-069>072-079>082-120200-
SOUTHWEST NEBRASKA

CITY           SKY/WX    TMP DP  RH WIND       PRES   REMARKS
NORTH PLATTE   PTCLDY    38  29  70 CALM      30.09R
IMPERIAL       CLOUDY    45  32  60 W9        30.14R
LEXINGTON      CLEAR     35  31  83 SW3       30.11R
MCCOOK         CLOUDY    44  32  62 SW8       30.11R
OGALLALA       CLOUDY    40  30  66 NW5       30.13R
$$

NEZ005>010-023>029-035>040-094-120200-
NORTH CENTRAL NEBRASKA

CITY           SKY/WX    TMP DP  RH WIND       PRES   REMARKS
VALENTINE      PTCLDY    34  29  82 N6        30.12R WCI  29
AINSWORTH      CLEAR     36  30  80 N17G24    30.09R WCI  26
BROKEN BOW     CLEAR     39  31  72 CALM      30.07R
O`NEILL        CLOUDY    29  28  95 NE10      30.11R FOG     WCI  20
ORD            MOCLDY    31  28  89 SW3       30.07R
THEDFORD       PTCLDY    43  32  64 NW7       30.10R
$$

NEZ041-046>049-061>064-073>077-083>087-120200-
SOUTH CENTRAL NEBRASKA

CITY           SKY/WX    TMP DP  RH WIND       PRES   REMARKS
GRAND ISLAND   CLEAR     29  26  89 S7        30.11R WCI  22
AURORA         PTCLDY    30  28  92 S8        30.11S WCI  22
HASTINGS       PTCLDY    31  27  85 SW6       30.11R WCI  25
HEBRON         CLOUDY    30  27  88 S5        30.15F WCI  25
HOLDREGE       CLEAR     33  30  90 SW6       30.11R WCI  27
KEARNEY *      PTCLDY    34  30  86 SW12      30.11R WCI  25
YORK           PTCLDY    28  27  93 S9        30.13S WCI  20
$$

NEZ011>018-030>034-042>045-120200-
NORTHEAST NEBRASKA

CITY           SKY/WX    TMP DP  RH WIND       PRES   REMARKS
NORFOLK        LGT SNOW  26  22  84 E8        30.14R FOG     WCI  18
ALBION         CLOUDY    30  27  88 SE3       30.11R
BLAIR          CLOUDY    24  19  81 NE5       30.17F WCI  19
COLUMBUS *     CLOUDY    28  18  64 SE7       30.14S WCI  21
FREMONT        CLOUDY    27  21  80 CALM      30.18S
TEKAMAH        LGT SNOW  21  17  84 E7        30.21S FOG     WCI  12
WAYNE          LGT SNOW  24  21  91 SE7       30.17R WCI  15
$$

NEZ050>053-065>068-078-088>093-120200-
SOUTHEAST NEBRASKA

CITY           SKY/WX    TMP DP  RH WIND       PRES   REMARKS
LINCOLN        CLOUDY    29  24  82 S5        30.19R WCI  24
OMAHA EPPLEY   CLOUDY    26  20  77 N5        30.20R WCI  20
BEATRICE       CLOUDY    29  25  83 CALM      30.17S
FALLS CITY     CLOUDY    33  22  63 SE6       30.18S WCI  28
NEBRASKA CITY  CLOUDY    29  23  78 W7        30.19R WCI  22
PLATTSMOUTH    CLOUDY    29  23  76 CALM      30.19R
$$

NEZ044-045-051>053-067-120200-
OMAHA AREA

CITY           SKY/WX    TMP DP  RH WIND       PRES   REMARKS
OMAHA EPPLEY   CLOUDY    26  20  77 N5        30.20R WCI  20
BLAIR          CLOUDY    24  19  81 NE5       30.17F WCI  19
FREMONT        CLOUDY    27  21  80 CALM      30.18S
MILLARD        CLOUDY    31  22  71 CALM      30.20R
OFFUTT AFB     CLOUDY    30  22  69 S1        30.20R
PLATTSMOUTH    CLOUDY    29  23  76 CALM      30.19R
WAHOO          CLOUDY    28  24  83 S5        30.18S WCI  23
$$




USA.gov is the U.S. government's official web portal to all federal, state and local government web resources and services.